Weather History for Appleton, MN

Change the Weather History Date:

Friday, May 15, 2009

  Actual Average Record
Temperature  
Mean Temperature 58 °F -  
Max Temperature 69 °F 65 °F 95 °F (2001)
Min Temperature 48 °F 43 °F 30 °F (1997)
Degree Days  
Heating Degree Days 6    
Growing Degree Days 8 (Base 50)    
Moisture  
Dew Point 48 °F    
Average Humidity 69    
Maximum Humidity 87    
Minimum Humidity 55    
Precipitation  
Precipitation 0.00 in - - ()
Sea Level Pressure  
Sea Level Pressure 29.82 in    
Wind  
Wind Speed 15 mph (SSW)    
Max Wind Speed 33 mph    
Max Gust Speed 45 mph    
Visibility 10 miles    
Events Rain , Thunderstorm    
Averages and records for this station are not official NWS values.
T = Trace of Precipitation, MM = Missing Value Source: NWS Daily Summary

Daily Weather History Graph

Daily Weather History Graph

Search for Another Location

Airport:

Trip Planner

Search our weather history database for the weather conditions in past years. The results will help you decide how hot, cold, wet, or windy it might be!

Date:

Astronomy

May. 15, 2009 Rise Set
Actual Time 5:53 AM CDT 8:47 PM CDT
Civil Twilight 5:19 AM CDT 9:22 PM CDT
Nautical Twilight 4:35 AM CDT 10:06 PM CDT
Astronomical Twilight 3:44 AM CDT 10:58 PM CDT
Moon 1:34 AM CDT (5/15) 11:08 AM CDT (5/15)
Length of Visible Light 16h 02m
Length of Day
14h 53m
Waning Gibbous, 65% of the Moon is Illuminated
May 15
Waning Gibbous
May 17
Last Quarter
May 24
New
May 30
First Quarter
Jun 7
Full

Hourly Weather History & Observations

Time (CDT) Temp. Windchill Dew Point Humidity Pressure Visibility Wind Dir Wind Speed Gust Speed Precip Events Conditions
12:13 AM 53.6 °F - 39.2 °F 58% 29.92 in 10.0 mi SE 6.9 mph - N/A   Clear
12:33 AM 53.6 °F - 39.2 °F 58% 29.91 in 10.0 mi SE 9.2 mph - N/A   Clear
12:53 AM 53.6 °F - 39.2 °F 58% 29.90 in 10.0 mi SE 9.2 mph - N/A   Clear
1:13 AM 53.6 °F - 41.0 °F 62% 29.90 in 10.0 mi SE 8.1 mph - N/A   Clear
1:34 AM 53.6 °F - 41.0 °F 62% 29.89 in 10.0 mi SE 10.4 mph - N/A   Clear
1:53 AM 53.6 °F - 41.0 °F 62% 29.88 in 10.0 mi SE 9.2 mph - N/A   Scattered Clouds
2:13 AM 53.6 °F - 41.0 °F 62% 29.89 in 10.0 mi SSE 9.2 mph - N/A   Clear
2:34 AM 53.6 °F - 42.8 °F 67% 29.88 in 10.0 mi SSE 10.4 mph - N/A   Clear
2:53 AM 53.6 °F - 42.8 °F 67% 29.88 in 10.0 mi SSE 11.5 mph - N/A   Clear
3:13 AM 53.6 °F - 42.8 °F 67% 29.86 in 10.0 mi SE 12.7 mph - N/A   Scattered Clouds
3:33 AM 53.6 °F - 44.6 °F 72% 29.85 in 10.0 mi SSE 12.7 mph 21.9 mph N/A Rain Light Rain
3:53 AM 53.6 °F - 44.6 °F 72% 29.84 in 10.0 mi SSE 15.0 mph 19.6 mph N/A   Mostly Cloudy
4:14 AM 53.6 °F - 44.6 °F 72% 29.84 in 10.0 mi SSE 16.1 mph 20.7 mph N/A   Mostly Cloudy
4:33 AM 53.6 °F - 46.4 °F 77% 29.84 in 10.0 mi SSE 13.8 mph 20.7 mph N/A   Overcast
4:53 AM 53.6 °F - 46.4 °F 77% 29.83 in 10.0 mi SSE 16.1 mph 19.6 mph N/A   Mostly Cloudy
5:14 AM 53.6 °F - 46.4 °F 77% 29.83 in 10.0 mi SSE 15.0 mph 20.7 mph N/A   Mostly Cloudy
5:33 AM 53.6 °F - 46.4 °F 77% 29.82 in 10.0 mi SSE 16.1 mph 21.9 mph N/A   Scattered Clouds
5:53 AM 53.6 °F - 46.4 °F 77% 29.82 in 10.0 mi SSE 13.8 mph 20.7 mph N/A   Scattered Clouds
6:14 AM 53.6 °F - 48.2 °F 82% 29.81 in 10.0 mi SSE 16.1 mph 20.7 mph N/A   Scattered Clouds
6:33 AM 53.6 °F - 48.2 °F 82% 29.80 in 10.0 mi SSE 18.4 mph - N/A   Clear
6:53 AM 53.6 °F - 48.2 °F 82% 29.80 in 10.0 mi SSE 15.0 mph 26.5 mph N/A   Clear
7:13 AM 53.6 °F - 48.2 °F 82% 29.80 in 10.0 mi SSE 18.4 mph 24.2 mph N/A   Clear
7:33 AM 53.6 °F - 48.2 °F 82% 29.79 in 10.0 mi SSE 16.1 mph 23.0 mph N/A   Clear
7:53 AM 55.4 °F - 48.2 °F 77% 29.78 in 10.0 mi SSE 17.3 mph 21.9 mph N/A   Clear
8:13 AM 57.2 °F - 50.0 °F 77% 29.78 in 10.0 mi South 12.7 mph 24.2 mph N/A   Clear
8:33 AM 57.2 °F - 51.8 °F 82% 29.77 in 10.0 mi South 17.3 mph 23.0 mph N/A   Clear
8:53 AM 57.2 °F - 50.0 °F 77% 29.76 in 10.0 mi South 13.8 mph 23.0 mph N/A   Clear
9:13 AM 57.2 °F - 51.8 °F 82% 29.76 in 10.0 mi South 17.3 mph 21.9 mph N/A   Clear
9:33 AM 57.2 °F - 51.8 °F 82% 29.76 in 10.0 mi SSE 16.1 mph 21.9 mph N/A   Clear
9:53 AM 60.8 °F - 51.8 °F 72% 29.76 in 10.0 mi South 13.8 mph 21.9 mph N/A   Clear
10:13 AM 62.6 °F - 53.6 °F 72% 29.75 in 10.0 mi South 13.8 mph 23.0 mph N/A   Clear
10:34 AM 62.6 °F - 53.6 °F 72% 29.74 in 10.0 mi South 15.0 mph 21.9 mph N/A   Clear
10:53 AM 66.2 °F - 55.4 °F 68% 29.73 in 10.0 mi South 12.7 mph 20.7 mph N/A   Clear
11:13 AM 69.8 °F - 55.4 °F 60% 29.72 in 10.0 mi South 15.0 mph 19.6 mph N/A   Clear
11:33 AM 68.0 °F - 55.4 °F 64% 29.73 in 10.0 mi SSW 13.8 mph - N/A   Scattered Clouds
11:53 AM 69.8 °F - 55.4 °F 60% 29.73 in 10.0 mi SW 17.3 mph 20.7 mph N/A   Mostly Cloudy
12:13 PM 69.8 °F - 53.6 °F 56% 29.73 in 10.0 mi SW 15.0 mph 18.4 mph N/A   Mostly Cloudy
12:33 PM 69.8 °F - 53.6 °F 56% 29.74 in 10.0 mi SW 12.7 mph - N/A   Overcast
12:53 PM 68.0 °F - 53.6 °F 60% 29.74 in 10.0 mi West 15.0 mph - N/A   Overcast
1:13 PM 68.0 °F - 53.6 °F 60% 29.74 in 10.0 mi West 11.5 mph - N/A   Overcast
1:33 PM 66.2 °F - 51.8 °F 60% 29.75 in 10.0 mi NW 23.0 mph - N/A   Overcast
1:53 PM 64.4 °F - 51.8 °F 64% 29.75 in 10.0 mi NW 20.7 mph 29.9 mph N/A   Overcast
2:13 PM 62.6 °F - 48.2 °F 59% 29.77 in 10.0 mi NW 19.6 mph 28.8 mph N/A Thunderstorm Overcast
2:33 PM 62.6 °F - 48.2 °F 59% 29.77 in 10.0 mi NW 24.2 mph 28.8 mph N/A   Overcast
2:53 PM 62.6 °F - 46.4 °F 55% 29.78 in 10.0 mi NW 27.6 mph 32.2 mph N/A   Overcast
3:13 PM 60.8 °F - 46.4 °F 59% 29.81 in 10.0 mi NW 29.9 mph 44.9 mph N/A   Overcast
3:33 PM 59.0 °F - 46.4 °F 63% 29.81 in 10.0 mi NW 26.5 mph 36.8 mph N/A   Overcast
3:53 PM 59.0 °F - 44.6 °F 59% 29.81 in 10.0 mi NNW 19.6 mph 32.2 mph N/A   Overcast
4:13 PM 60.8 °F - 46.4 °F 59% 29.81 in 10.0 mi NW 23.0 mph 28.8 mph N/A   Overcast
4:33 PM 62.6 °F - 46.4 °F 55% 29.83 in 10.0 mi NW 31.1 mph 35.7 mph N/A   Scattered Clouds
4:53 PM 60.8 °F - 48.2 °F 63% 29.85 in 10.0 mi NW 31.1 mph 36.8 mph N/A   Scattered Clouds
5:13 PM 57.2 °F - 46.4 °F 67% 29.87 in 10.0 mi NW 27.6 mph 36.8 mph N/A   Mostly Cloudy
5:33 PM 57.2 °F - 46.4 °F 67% 29.88 in 10.0 mi NW 26.5 mph 38.0 mph N/A   Mostly Cloudy
5:53 PM 57.2 °F - 46.4 °F 67% 29.89 in 10.0 mi NW 31.1 mph 39.1 mph N/A   Mostly Cloudy
6:13 PM 55.4 °F - 46.4 °F 72% 29.91 in 10.0 mi NW 31.1 mph 41.4 mph N/A   Mostly Cloudy
6:33 PM 51.8 °F - 46.4 °F 82% 29.93 in 10.0 mi NW 33.4 mph 42.6 mph N/A   Overcast
6:53 PM 48.2 °F - 44.6 °F 87% 29.94 in 10.0 mi NW 25.3 mph 38.0 mph N/A   Overcast
7:13 PM 48.2 °F - 44.6 °F 87% 29.96 in 10.0 mi NW 26.5 mph 36.8 mph N/A   Overcast
7:33 PM 48.2 °F - 42.8 °F 82% 29.97 in 10.0 mi NW 31.1 mph 39.1 mph N/A   Overcast
7:53 PM 46.4 °F 37.4 °F 41.0 °F 81% 29.98 in 10.0 mi NW 28.8 mph 40.3 mph N/A   Overcast
8:13 PM 44.6 °F 35.1 °F 39.2 °F 81% 30.00 in 10.0 mi NNW 27.6 mph 35.7 mph N/A   Overcast
8:33 PM 44.6 °F 34.6 °F 37.4 °F 76% 30.02 in 10.0 mi NNW 31.1 mph 36.8 mph N/A   Overcast
8:53 PM 44.6 °F 35.3 °F 37.4 °F 76% 30.02 in 10.0 mi NNW 26.5 mph 35.7 mph N/A   Overcast
9:13 PM 44.6 °F 34.7 °F 35.6 °F 71% 30.04 in 10.0 mi NNW 29.9 mph 36.8 mph N/A   Overcast
9:33 PM 42.8 °F 32.5 °F 35.6 °F 76% 30.05 in 10.0 mi NNW 28.8 mph 40.3 mph N/A   Overcast
9:53 PM 42.8 °F 33.5 °F 35.6 °F 76% 30.07 in 10.0 mi NNW 23.0 mph 29.9 mph N/A   Overcast
10:13 PM 42.8 °F 35.1 °F 35.6 °F 76% 30.10 in 10.0 mi NNW 16.1 mph 23.0 mph N/A   Overcast
10:33 PM 42.8 °F 33.3 °F 35.6 °F 76% 30.12 in 10.0 mi North 24.2 mph 31.1 mph N/A   Overcast
10:53 PM 41.0 °F 31.9 °F 37.4 °F 87% 30.13 in 10.0 mi NNW 19.6 mph 24.2 mph N/A   Overcast
11:13 PM 41.0 °F 31.4 °F 33.8 °F 76% 30.13 in 10.0 mi NNW 21.9 mph 31.1 mph N/A   Overcast
11:33 PM 41.0 °F 30.5 °F 32.0 °F 70% 30.14 in 10.0 mi North 26.5 mph 34.5 mph N/A   Overcast
11:53 PM 41.0 °F 32.2 °F 33.8 °F 76% 30.15 in 10.0 mi NNW 18.4 mph 27.6 mph N/A   Overcast